This demonstration page uses our WeatherBlox Daily Observations layout. Learn more.

Left ArrowRight Arrow

Hourly Observations for March 13, 2015

Temp ( °F °C ) Dew Point ( °F °C ) Humidity (%) Winds ( mph kmh ) Pressure ( in mb ) Visibility ( mi km ) Precip ( " mm )
12:53 am 00:53 Clear 35 1.7 27 -2.8 72 72 S 13 20 30.30 1026 10 16 N/A
1:53 am 01:53 Clear 36 2.2 28 -2.2 73 73 SW 12 19 30.31 1026 10 16 N/A
2:53 am 02:53 Clear 34 1.1 27 -2.8 76 76 SW 8 13 30.33 1027 10 16 N/A
3:53 am 03:53 Clear 31 -0.6 26 -3.3 82 82 WSW 8 13 30.34 1027 10 16 N/A
4:53 am 04:53 Clear 32 undefined 26 -3.3 79 79 WSW 13 20 30.35 1028 10 16 N/A
5:53 am 05:53 Clear 33 0.6 27 -2.8 78 78 WSW 12 19 30.37 1028 10 16 N/A
6:53 am 06:53 Clear 35 1.7 27 -2.8 72 72 SW 13 20 30.39 1029 10 16 N/A
7:53 am 07:53 Sunny 35 1.7 28 -2.2 76 76 SW 12 19 30.41 1030 10 16 N/A
8:53 am 08:53 Sunny 39 3.9 30 -1.1 70 70 SW 12 19 30.42 1030 10 16 N/A
9:53 am 09:53 Sunny 47 8.3 31 -0.6 54 54 SW 17 28 30.41 1030 10 16 N/A
10:53 am 10:53 Sunny 51 10.6 31 -0.6 46 46 SW 17 28 30.40 1029 10 16 N/A
11:53 am 11:53 Sunny 54 12.2 32 undefined 43 43 SW 17 28 30.40 1029 10 16 N/A
12:53 pm 12:53 Sunny 59 15 31 -0.6 35 35 SW 15 24 30.37 1028 10 16 N/A
1:53 pm 13:53 Sunny 60 15.6 29 -1.7 31 31 SSW 12 19 30.33 1027 10 16 N/A
2:53 pm 14:53 Sunny 63 17.2 28 -2.2 27 27 SSW 13 20 30.30 1026 10 16 N/A
3:53 pm 15:53 Sunny 64 17.8 26 -3.3 24 24 SW 15 24 30.27 1025 10 16 N/A
4:53 pm 16:53 Sunny 64 17.8 26 -3.3 24 24 SW 14 22 30.25 1024 10 16 N/A
5:53 pm 17:53 Sunny 64 17.8 27 -2.8 25 25 SW 12 19 30.22 1024 10 16 N/A
6:53 pm 18:53 Sunny 57 13.9 29 -1.7 34 34 SSW 6 9 30.20 1023 10 16 N/A
7:53 pm 19:53 Clear 43 6.1 25 -3.9 49 49 S 8 13 30.21 1023 10 16 N/A
8:53 pm 20:53 Clear 42 5.6 27 -2.8 55 55 ESE 5 7 30.17 1022 10 16 N/A
9:53 pm 21:53 Clear 41 5 25 -3.9 53 53 N N/A 30.15 1021 10 16 N/A
10:53 pm 22:53 Clear 38 3.3 27 -2.8 65 65 E 5 7 30.12 1020 10 16 N/A
11:53 pm 23:53 Clear 32 undefined 24 -4.4 73 73 N N/A 30.10 1019 10 16 N/A

Powered by AerisWeather